Regional Weather Roundup
Issued by NWS

Home | Current Version | Previous Version | Text Only | Print | Product List | Glossary Off
Versions: 1 2 3 4 5 6 7 8 9 10 11 12 13 14 15 16 17 18 19 20 21 22 23 24 25 26 27 28 29 30 31 32 33 34 35 36 37 38 39 40 41 42 43 44 45 46 47 48 49 50

000
ASUS43 KBIS 290510
RWRND

NORTH DAKOTA REGIONAL WEATHER ROUNDUP
NATIONAL WEATHER SERVICE BISMARCK ND
1200 AM CDT WED MAR 29 2017

NOTE: "FAIR" INDICATES FEW OR NO CLOUDS BELOW 12,000 FEET WITH NO
SIGNIFICANT WEATHER AND/OR OBSTRUCTIONS TO VISIBILITY.


NDZ001>003-009>011-017-290600-
NORTHWEST NORTH DAKOTA

CITY           SKY/WX    TMP DP  RH WIND       PRES   REMARKS
WILLISTON      FOG       36  36 100 SW5       30.11S VSB 3/4
MINOT          CLOUDY    43  40  89 CALM      30.11F
MINOT AFB      DRIZZLE   41  40  94 E9        30.11F
$$

NDZ018>021-031>035-040>046-290600-
SOUTHWEST NORTH DAKOTA

CITY           SKY/WX    TMP DP  RH WIND       PRES   REMARKS
BISMARCK       MOCLDY    48  40  73 S9        30.15F
DICKINSON      CLOUDY    41  40  96 S5        30.10S
GARRISON         N/A     44  37  76 SW8       30.11F
HETTINGER ARPT CLOUDY    44  41  89 S7        30.16R
$$

NDZ004>008-012>016-024-026-027-054-290600-
NORTHEAST NORTH DAKOTA

CITY           SKY/WX    TMP DP  RH WIND       PRES   REMARKS
GRAND FORKS    PTCLDY    36  36 100 NW5       30.21F
GRND FRKS AFB  PTCLDY    34  34 100 N6        30.22S FOG
DEVILS LAKE    FAIR      36  36 100 SE6       30.19F
$$

NDZ022-023-025-028>030-036>039-047>053-290600-
SOUTHEAST NORTH DAKOTA

CITY           SKY/WX    TMP DP  RH WIND       PRES   REMARKS
FARGO          CLOUDY    40  38  93 N6        30.19F
JAMESTOWN      FAIR      39  37  92 CALM      30.17F
$$





USA.gov is the U.S. government's official web portal to all federal, state and local government web resources and services.